Starlink 5994

operational
NORAD ID: 56457 Int'l Des: 2023-064 Owner: SPXS Country: US Constellation: starlink
LEOCIRCULAR

About Starlink 5994

Description loading...

Live Position

Loading 3D Globe...

Upcoming Passes

Altitude History

Altitude vs Time

uPlot chart will show altitude changes over time

Two-Line Element Set

1 56457U 23064K 26020.27576876 .00001369 00000-0 12253-3 0 9995
2 56457 69.9981 266.5414 0003082 270.2181 89.8625 14.98335689147997
Epoch: Jan 20, 2026 • Age: 12 hours

Current Status

Altitude 595.4 km
Velocity 7.56 km/s
Sub-Earth Point -70.02°S, 134.54°E
Launch Date May 10, 2023
Age 2.6 years
Type internet

Technical Details

Classification Payload
Mass 305.00 kg
Dry Mass 290.00 kg
Total Mass 305.00 kg
Length 0.20 m
Diameter 2.80 m
Span 9.00 m
Shape Box + pan
Manufacturer SPXS
Bus Type Starlink
Phase Status In Orbit
Owner/State SPXS/US

Large Constellations

Loading constellations...